SCP
0 0 0 0 0 0 0 0 0 0 0 0 0 0 0 0 0 0 0 -0 -0 -0 0 0 0 -0 -0 -0 -0 -0 -0 -0 -0 0 0 0 0 0 0 0 0 0 0 0 0 0 0 0 0
0 0 0 0 0 0 0 0 0 0 0 0 0 0 0 0 -0 0 -0 -0 -0 -0 0 0 0 0 -0 -0 -0 -0 -0 -0 -0 -0 0 0 0 0 0 0 0 0 0 0 0 0 0 0 0
0 0 0 0 0 0 -0 0 0 0 0 0 0 0 0 0 0 -0 -0 -0 0 0 -0 -0 0 -0 -0 -0 -0 -0 -0 -0 -0 -0 -0 0 0 0 0 0 0 0 0 0 0 0 0 0 0
0 0 0 0 0 0 0 0 0 0 0 0 0 0 0 0 0 0 -0 -0 0 0 -0 -0 0 -0 -0 -0 -0 -0 -0 -0 -0 -0 0 0 0 0 0 0 0 0 0 0 0 0 0 0 0
0 0 0 0 0 0 0 0 0 0 0 0 0 0 0 -0 0 0 -0 0 0 0 -0 -0 0 -0 -0 -0 -0 -0 -0 -0 -0 -0 0 0 0 0 0 0 0 0 0 0 0 0 0 0 0
0 0 0 0 0 0 0 -0 0 0 0 0 0 0 0 -0 -0 0 0 0 0 0 0 -0 -0 -0 -0 -0 -0 -0 -0 -0 -0 -0 -0 0 0 0 0 0 0 0 0 0 0 0 0 0 0
0 0 0 0 -0 -0 -0 -0 0 0 0 0 0 0 0 0 0 0 0 0 0 0 0 -0 -0 -0 0 0 -0 -0 -0 -0 -0 -0 -0 0 0 0 0 0 0 0 0 0 0 0 0 0 0
0 0 0 0 0 0 -0 -0 0 0 0 0 0 0 0 0 0 0 0 0 0 0 0 0 -0 -0 0 0 0 -0 -0 -0 -0 -0 0 0 0 0 0 0 0 0 0 0 0 0 0 0 0
0 0 0 0 0 0 0 0 0 0 0 0 0 0 0 0 0 0 0 0 0 0 0 0 0 0 0 0 0 0 -0 -0 -0 0 0 0 1 1 0 0 0 0 0 0 1 1 0 0 0
0 0 0 0 0 0 -0 -0 0 -0 0 -0 -0 0 0 0 0 0 0 0 0 -0 0 0 0 0 0 0 0 0 0 0 0 0 0 0 0 0 0 0 0 0 0 1 1 1 1 0 0
0 0 0 0 0 0 0 -0 -0 -0 -0 -0 0 0 0 0 0 0 0 0 0 -0 0 0 0 -0 0 0 0 0 0 0 0 0 0 0 0 0 0 0 0 0 0 0 1 1 1 0 0
0 0 0 0 0 0 0 -0 -0 -0 -0 -0 -0 -0 0 0 0 0 0 0 0 0 0 0 0 0 0 0 0 0 0 0 0 0 0 0 0 0 0 0 0 0 0 0 0 0 0 0 0
0 0 0 0 0 0 0 0 -0 -0 -0 -0 -0 -0 -0 -0 0 0 0 0 0 0 0 0 0 0 0 0 0 0 0 0 0 0 0 0 0 0 0 0 0 0 0 0 0 0 0 0 0
0 0 0 0 0 0 0 0 0 0 -0 -0 -0 -0 -0 -0 -0 0 0 0 0 -0 0 0 0 0 0 0 0 0 0 0 0 0 0 0 0 0 0 0 0 0 0 0 0 0 0 0 0
0 0 0 0 0 0 0 0 0 0 -0 -0 -0 -0 -0 -0 0 0 0 0 0 0 0 0 0 0 0 0 0 0 0 0 0 0 0 0 0 0 0 0 0 0 0 0 0 0 0 0 0
0 0 0 0 0 0 0 0 0 0 0 0 0 -0 -0 0 0 0 0 0 0 0 0 0 0 0 0 0 0 0 0 0 0 0 0 0 0 0 0 0 0 0 0 0 0 0 0 0 0
0 0 0 0 0 0 0 0 0 0 0 0 0 0 0 0 0 0 0 0 0 0 0 0 0 1 0 0 0 0 0 0 0 0 0 0 0 0 0 0 0 0 0 0 0 0 0 0 0
0 0 0 0 0 0 0 0 0 0 0 0 0 0 0 0 0 0 0 0 0 0 0 0 0 0 1 1 0 0 0 0 0 0 0 0 0 0 0 0 0 0 0 0 0 0 0 0 0
0 0 0 0 0 0 0 0 0 0 0 0 0 0 0 0 0 0 0 0 0 0 0 0 0 0 0 0 0 0 0 0 0 0 0 0 0 0 0 0 0 0 0 0 0 0 0 0 0
0 0 0 0 0 0 0 -0 0 0 0 0 0 0 -0 -0 -0 -0 0 0 0 0 0 0 0 0 0 0 1 0 0 0 0 0 0 1 0 0 0 0 0 0 0 0 0 0 0 0 0
0 0 0 -0 -0 -0 -0 -0 -0 -0 0 0 0 0 0 -0 -0 -0 -0 -0 0 0 0 0 0 0 0 0 0 0 0 0 0 1 1 1 1 1 1 0 0 0 0 0 0 0 0 0 0
0 0 -0 -0 -0 -0 -0 -0 -0 -0 -0 0 0 0 0 0 0 -0 -0 -0 -0 0 0 0 0 0 0 0 0 1 1 1 1 1 1 1 1 1 1 0 0 1 0 0 0 0 0 0 0
0 0 0 0 0 0 0 0 -0 0 -0 0 0 0 0 0 0 0 0 0 0 0 -0 0 0 0 0 0 1 1 1 1 1 1 1 1 1 2 1 1 1 1 1 0 0 0 0 0 0
0 0 0 0 0 0 0 0 -0 -0 0 0 0 0 0 0 0 0 0 0 0 0 0 0 -0 0 0 0 0 1 1 1 0 1 1 1 1 2 2 1 1 1 1 1 1 0 0 0 0
0 0 0 0 0 0 0 0 0 0 0 0 0 0 0 0 -0 -0 0 0 0 0 0 0 0 0 0 0 0 0 1 1 0 1 1 1 2 2 2 1 1 1 1 1 1 1 0 0 0
0 0 0 0 0 0 0 0 0 -0 -0 0 0 0 0 0 -0 -0 -0 -0 0 0 0 0 0 0 0 0 0 0 1 1 1 0 1 1 1 2 2 1 1 1 1 1 1 0 0 0 0
0 0 0 0 0 0 0 0 0 -0 -0 0 0 0 0 -0 -0 -0 -0 -0 -0 -0 0 0 0 0 0 0 0 0 0 0 1 0 1 1 2 2 2 2 2 1 2 1 1 0 0 0 0
0 0 0 0 0 0 0 0 0 0 -0 -0 0 0 0 0 -0 -0 -0 -0 -0 -0 0 0 0 0 0 0 0 0 0 0 0 0 1 1 1 2 2 2 2 1 1 1 0 0 0 0 0
0 0 0 0 0 0 0 0 0 0 0 0 0 -0 0 0 0 -0 -0 -0 -0 -0 0 0 0 0 0 0 -0 0 0 0 0 0 1 1 2 2 2 2 1 1 1 0 0 0 0 0 0
0 0 0 0 0 0 0 0 0 0 0 0 0 -0 0 -0 -0 -0 -0 -0 -0 -0 0 0 0 0 0 0 0 0 0 0 0 1 1 1 2 2 2 2 1 1 0 0 0 0 0 0 0
Wind_Speed_500mb
16 6 10 6 5 9 3 10 2 7 9 8 29 12 23 31 18 12 16 50 64 72 76 73 67 64 61 56 53 49 46 44 42 38 34 31 28 26 24 21 19 18 17 16 14 13 13 14 13
10 6 9 5 7 2 8 7 10 11 16 43 38 21 19 21 65 28 20 65 70 75 78 76 73 68 64 61 55 50 44 41 38 35 32 29 25 23 20 18 16 15 14 13 12 12 11 11 9
8 10 2 8 7 10 8 10 7 10 31 13 12 28 6 9 32 48 36 79 79 76 80 79 76 71 67 63 58 53 46 40 36 32 28 25 23 20 18 16 14 12 11 10 9 10 10 8 7
5 6 4 5 15 8 7 9 9 15 11 21 31 18 29 10 12 58 51 78 80 79 81 80 77 72 67 63 58 53 45 40 36 31 27 24 21 20 18 16 15 12 9 8 7 6 7 7 5
9 5 2 8 7 5 6 17 15 11 9 27 28 18 26 41 15 46 62 74 82 81 81 82 78 73 67 63 57 52 46 40 35 30 27 24 21 20 20 19 16 14 12 10 8 5 4 3 2
5 2 4 11 4 4 4 16 10 8 13 28 32 23 14 58 19 44 81 80 82 83 84 81 77 73 67 62 57 53 47 43 36 31 28 25 24 22 21 20 18 18 16 15 13 12 10 7 6
11 7 8 7 3 8 6 6 7 10 15 15 44 5 32 76 29 31 85 84 87 82 81 79 75 73 67 61 58 54 48 44 40 34 29 27 26 26 24 24 22 22 21 21 20 19 17 14 13
10 7 5 6 5 5 6 8 12 13 9 34 32 11 27 63 34 18 69 79 87 87 82 79 76 74 69 63 58 54 49 45 42 38 35 32 30 29 28 28 27 26 27 26 26 26 23 22 20
13 4 7 4 9 6 2 8 3 21 12 38 28 23 37 51 41 16 59 69 82 85 84 82 79 75 69 62 57 54 52 49 46 43 41 39 38 34 33 30 29 29 32 30 31 32 29 28 26
9 8 15 8 4 3 18 8 25 15 32 20 31 48 40 42 41 24 45 59 76 86 90 86 82 76 70 64 60 55 53 53 50 47 45 44 40 38 35 34 32 32 35 35 36 37 36 35 31
10 8 4 3 4 20 15 23 20 11 11 8 42 54 56 48 32 18 4 38 76 80 84 86 82 78 69 65 62 59 57 54 52 51 48 46 44 43 40 37 34 33 34 37 39 40 40 39 35
3 7 6 5 19 17 9 37 12 37 21 28 38 39 45 44 37 27 21 10 19 64 78 83 82 81 74 69 65 63 61 58 57 54 50 49 47 46 44 39 35 32 31 33 39 39 40 39 37
5 1 4 12 18 26 31 29 36 42 29 25 27 42 39 37 34 31 24 25 19 22 57 76 80 82 80 78 73 69 67 66 62 59 55 53 49 47 45 41 36 31 29 28 31 34 36 36 34
1 4 11 9 13 18 14 30 25 30 32 47 44 40 37 37 32 31 32 32 34 35 19 50 74 83 86 85 82 79 75 72 68 65 62 59 53 50 46 43 35 30 27 26 25 29 29 29 29
2 6 9 13 20 15 20 21 16 17 15 27 22 15 17 18 21 22 23 29 26 32 33 31 32 64 82 89 88 86 84 82 74 75 69 65 59 57 46 45 36 30 28 27 28 29 29 28 28
5 9 3 9 4 10 16 20 10 26 22 20 26 28 26 31 29 26 23 24 23 25 26 33 33 36 45 74 84 89 89 87 82 76 65 57 59 62 52 48 35 27 30 30 31 30 30 27 28
9 6 5 12 6 5 7 6 8 32 25 17 24 23 30 27 28 30 30 28 28 24 24 29 34 43 43 50 63 82 88 90 76 73 55 63 70 53 61 52 33 27 32 33 33 32 32 27 30
3 2 3 7 8 10 14 11 10 30 25 23 25 30 29 23 28 35 35 31 33 29 25 25 31 39 48 51 54 64 79 85 72 71 69 78 62 59 61 51 38 30 33 35 35 35 33 28 26
4 3 5 8 6 10 12 20 15 19 17 24 28 27 25 33 39 32 29 30 33 36 34 29 28 35 45 52 64 60 72 75 85 77 77 67 61 64 60 53 43 34 36 31 32 35 34 30 28
5 2 4 9 12 11 20 39 23 13 13 18 19 23 27 44 43 34 35 37 35 36 41 38 31 31 37 49 60 72 64 78 84 88 84 69 65 60 60 48 46 38 35 32 32 35 36 33 30
4 6 3 8 10 11 14 19 7 1 7 17 21 21 30 27 35 47 49 52 53 48 43 47 44 39 37 45 63 67 74 72 75 86 84 79 71 65 54 50 47 39 36 32 31 31 36 33 30
2 8 4 4 7 4 8 14 9 9 8 6 21 21 14 28 39 46 54 56 59 61 59 54 56 53 44 42 56 67 77 71 82 80 85 84 79 62 55 52 48 41 36 32 28 30 33 32 36
8 3 5 4 5 5 7 5 11 10 11 11 12 19 27 32 35 44 52 57 57 59 63 60 60 64 58 47 48 63 70 75 73 86 87 88 71 59 54 54 49 41 38 32 31 33 32 36 36
6 6 9 8 5 4 10 7 8 4 7 8 10 23 24 30 37 52 61 66 70 65 66 63 62 66 67 57 51 62 72 73 76 79 90 93 68 58 54 55 45 42 39 34 33 31 32 31 34
11 11 8 9 5 9 9 7 18 18 23 14 14 24 30 37 48 57 65 72 82 83 79 71 66 69 68 69 59 58 69 70 79 81 88 90 65 59 52 53 44 44 38 34 34 34 35 36 36
7 12 9 10 7 9 2 14 12 16 24 16 18 22 36 49 57 58 69 81 88 90 82 67 67 75 71 75 71 60 71 79 76 85 91 89 73 56 54 46 42 38 38 35 35 34 36 36 33
3 6 5 0 2 3 10 15 22 20 12 13 21 33 44 49 53 63 74 84 73 84 73 56 70 72 73 76 78 70 68 79 82 86 88 81 74 55 54 44 39 40 38 35 34 36 37 36 31
8 9 3 5 5 9 9 13 20 20 21 10 15 32 54 57 51 57 75 82 78 79 63 61 70 70 76 76 79 76 70 72 71 81 79 81 70 60 52 44 40 42 39 36 38 41 36 32 32
1 0 7 6 8 7 8 12 11 10 11 14 15 42 55 60 58 58 72 77 76 87 83 68 62 65 72 73 75 78 72 68 70 64 72 80 69 60 47 44 44 47 45 39 39 39 38 34 29
10 13 11 8 8 7 6 26 14 14 9 14 31 55 65 54 63 62 66 70 77 84 99 81 67 70 64 62 71 78 73 65 71 72 78 74 67 54 49 46 48 52 47 42 39 39 38 32 29
Wind_Direction_500mb
288 257 177 158 57 61 253 244 268 318 307 263 281 223 223 207 170 211 223 192 181 173 167 165 165 166 162 160 158 157 154 155 155 156 154 150 146 144 142 140 137 134 129 124 116 108 101 95 92
274 226 161 136 106 142 260 250 212 210 271 308 290 275 238 242 224 251 222 176 183 173 169 167 167 169 165 166 163 162 161 162 162 163 161 158 156 154 153 152 149 146 140 135 128 119 107 96 90
253 179 198 126 146 188 219 219 210 260 321 292 296 317 235 246 203 220 196 172 177 177 172 170 169 170 170 170 170 169 170 170 171 173 171 170 169 168 169 168 169 166 160 152 143 128 121 115 96
205 172 62 123 224 227 222 222 244 315 343 344 332 305 322 310 225 216 179 174 177 180 177 174 173 173 175 175 176 174 177 178 180 181 183 186 187 187 190 192 194 197 198 189 179 150 142 124 112
193 143 95 267 227 229 221 271 300 306 309 317 348 302 297 351 311 209 188 178 180 183 181 178 177 178 178 180 181 181 184 187 189 192 197 201 204 207 210 212 215 222 228 234 223 230 228 175 172
142 120 92 242 141 101 276 259 288 309 312 321 350 335 4 350 339 187 180 180 184 184 183 183 181 183 184 184 186 189 192 194 199 205 209 212 216 220 226 231 232 239 243 251 251 254 257 255 256
157 112 221 244 167 28 313 296 315 314 318 342 345 54 344 4 358 205 182 184 186 189 187 187 187 188 191 190 191 196 200 202 207 215 219 224 228 230 232 238 244 249 253 255 259 258 262 265 266
171 117 235 255 87 240 256 323 298 24 307 334 12 3 350 354 343 240 195 189 190 191 191 190 193 194 196 195 198 201 206 211 214 219 226 231 235 239 241 244 249 255 258 259 264 264 261 263 269
155 121 222 203 146 259 12 331 289 316 285 328 332 355 0 354 346 263 201 194 194 197 196 196 199 199 201 202 204 207 210 217 220 221 227 232 237 243 248 253 254 260 261 259 261 265 264 264 266
163 163 210 159 18 292 312 291 330 323 319 324 343 337 341 350 353 321 216 205 202 203 202 200 204 205 206 207 211 214 217 220 226 227 230 236 239 246 252 257 259 262 264 265 265 264 263 263 265
174 203 214 97 251 294 292 295 310 300 310 354 322 323 329 336 333 353 295 241 218 212 209 207 207 210 213 215 216 219 221 226 230 235 238 241 242 246 250 257 260 266 269 272 270 268 267 270 269
133 237 213 236 267 291 277 302 254 260 261 302 315 324 323 330 327 316 329 321 259 239 223 215 212 213 217 220 223 226 227 230 233 238 241 247 250 251 254 258 264 267 272 273 274 271 269 269 270
129 350 304 277 276 272 283 260 270 270 289 310 322 318 316 324 331 315 313 313 318 280 240 237 223 219 220 223 226 229 232 234 237 242 244 248 254 258 262 264 265 269 270 272 274 276 274 271 269
229 275 277 260 251 252 245 268 260 275 308 310 312 312 315 313 323 322 311 305 310 317 281 249 243 237 228 227 229 232 235 238 239 242 247 251 257 259 262 264 262 265 266 269 269 274 269 261 255
303 316 311 229 230 231 236 267 246 317 346 310 324 20 358 351 351 346 320 300 295 298 297 294 284 253 249 243 235 235 238 241 240 245 247 253 258 262 263 261 260 266 263 265 265 266 269 258 244
87 41 6 289 358 257 181 252 358 3 27 344 327 335 354 352 350 354 342 327 307 285 276 283 286 283 261 249 250 249 246 245 248 252 255 262 266 265 264 259 257 263 264 265 264 263 269 259 239
6 173 202 313 295 295 161 286 293 327 337 328 320 325 332 343 340 336 335 332 320 313 280 268 277 278 283 273 257 248 251 252 252 254 245 240 247 255 261 262 259 258 268 268 266 265 264 261 243
235 330 235 242 298 10 305 246 285 309 312 299 300 305 317 328 340 333 326 316 308 306 301 280 274 269 278 276 273 261 252 247 245 249 245 241 250 250 255 262 266 265 273 269 266 264 258 261 245
76 230 229 260 286 353 288 287 283 276 270 275 283 291 304 319 327 323 327 327 308 303 300 293 280 266 262 272 273 271 263 251 238 234 240 243 241 246 252 259 263 269 276 274 267 260 251 254 246
180 218 312 306 319 343 305 293 286 240 228 230 259 281 293 318 320 326 328 327 323 312 302 298 297 283 270 268 268 267 275 259 247 237 235 243 244 247 249 259 267 274 271 263 259 252 247 246 242
200 158 215 234 322 297 324 296 264 309 223 270 262 261 309 319 327 327 327 324 321 317 310 299 294 292 278 266 261 263 263 257 257 238 237 243 248 249 252 258 265 270 261 258 253 249 245 248 249
340 196 217 263 28 292 58 287 263 233 258 282 290 309 314 320 322 325 326 327 323 316 313 308 293 287 282 279 261 253 258 258 251 248 240 242 248 248 251 258 266 263 250 250 248 244 241 245 239
213 38 332 307 273 13 264 264 274 321 344 318 285 293 317 328 329 329 328 324 325 326 315 305 298 281 278 276 271 251 256 254 252 246 250 248 249 247 251 256 260 248 244 242 240 236 231 241 237
67 25 20 51 76 2 264 179 270 166 176 256 251 285 316 331 332 330 327 325 321 319 317 307 298 283 273 272 273 254 251 249 247 245 245 248 248 244 249 256 251 242 239 239 237 231 235 226 232
73 52 339 345 9 224 207 299 242 264 290 216 253 293 311 322 329 332 334 331 329 322 316 305 299 289 275 270 265 259 245 249 249 245 243 242 238 240 251 254 247 237 236 233 231 227 218 218 230
205 152 167 237 224 237 54 247 247 217 241 234 244 284 307 321 328 331 336 336 332 325 316 299 296 290 282 270 263 263 245 242 246 246 243 239 240 242 254 253 241 231 227 228 230 213 206 216 221
151 165 189 196 304 325 223 289 302 281 265 256 296 309 309 318 325 331 333 335 332 327 314 297 298 288 284 275 262 258 249 239 248 243 242 238 235 238 248 243 234 221 222 227 220 200 211 211 215
154 162 70 14 269 269 258 259 241 286 279 280 293 297 312 317 319 326 333 332 328 334 319 303 301 293 287 277 261 255 249 237 250 240 234 228 228 234 235 233 223 219 218 221 209 205 204 197 211
18 69 80 122 150 210 306 261 220 236 248 274 276 304 311 313 313 318 320 327 321 329 329 313 308 309 291 276 260 252 244 231 243 229 223 222 227 233 229 230 222 216 215 205 199 204 201 201 217
174 196 159 138 226 216 243 270 272 259 299 313 294 305 309 314 320 304 312 317 313 319 326 316 313 312 297 268 252 245 236 227 235 229 219 224 230 229 232 224 219 218 208 197 205 204 199 205 221
Wind_Speed_850mb
16 6 10 6 5 9 3 10 2 7 9 8 29 12 23 31 18 12 16 50 64 72 76 73 67 64 61 56 53 49 46 44 42 38 34 31 28 26 24 21 19 18 17 16 14 13 13 14 13
10 6 9 5 7 2 8 7 10 11 16 43 38 21 19 21 65 28 20 65 70 75 78 76 73 68 64 61 55 50 44 41 38 35 32 29 25 23 20 18 16 15 14 13 12 12 11 11 9
8 10 2 8 7 10 8 10 7 10 31 13 12 28 6 9 32 48 36 79 79 76 80 79 76 71 67 63 58 53 46 40 36 32 28 25 23 20 18 16 14 12 11 10 9 10 10 8 7
5 6 4 5 15 8 7 9 9 15 11 21 31 18 29 10 12 58 51 78 80 79 81 80 77 72 67 63 58 53 45 40 36 31 27 24 21 20 18 16 15 12 9 8 7 6 7 7 5
9 5 2 8 7 5 6 17 15 11 9 27 28 18 26 41 15 46 62 74 82 81 81 82 78 73 67 63 57 52 46 40 35 30 27 24 21 20 20 19 16 14 12 10 8 5 4 3 2
5 2 4 11 4 4 4 16 10 8 13 28 32 23 14 58 19 44 81 80 82 83 84 81 77 73 67 62 57 53 47 43 36 31 28 25 24 22 21 20 18 18 16 15 13 12 10 7 6
11 7 8 7 3 8 6 6 7 10 15 15 44 5 32 76 29 31 85 84 87 82 81 79 75 73 67 61 58 54 48 44 40 34 29 27 26 26 24 24 22 22 21 21 20 19 17 14 13
10 7 5 6 5 5 6 8 12 13 9 34 32 11 27 63 34 18 69 79 87 87 82 79 76 74 69 63 58 54 49 45 42 38 35 32 30 29 28 28 27 26 27 26 26 26 23 22 20
13 4 7 4 9 6 2 8 3 21 12 38 28 23 37 51 41 16 59 69 82 85 84 82 79 75 69 62 57 54 52 49 46 43 41 39 38 34 33 30 29 29 32 30 31 32 29 28 26
9 8 15 8 4 3 18 8 25 15 32 20 31 48 40 42 41 24 45 59 76 86 90 86 82 76 70 64 60 55 53 53 50 47 45 44 40 38 35 34 32 32 35 35 36 37 36 35 31
10 8 4 3 4 20 15 23 20 11 11 8 42 54 56 48 32 18 4 38 76 80 84 86 82 78 69 65 62 59 57 54 52 51 48 46 44 43 40 37 34 33 34 37 39 40 40 39 35
3 7 6 5 19 17 9 37 12 37 21 28 38 39 45 44 37 27 21 10 19 64 78 83 82 81 74 69 65 63 61 58 57 54 50 49 47 46 44 39 35 32 31 33 39 39 40 39 37
5 1 4 12 18 26 31 29 36 42 29 25 27 42 39 37 34 31 24 25 19 22 57 76 80 82 80 78 73 69 67 66 62 59 55 53 49 47 45 41 36 31 29 28 31 34 36 36 34
1 4 11 9 13 18 14 30 25 30 32 47 44 40 37 37 32 31 32 32 34 35 19 50 74 83 86 85 82 79 75 72 68 65 62 59 53 50 46 43 35 30 27 26 25 29 29 29 29
2 6 9 13 20 15 20 21 16 17 15 27 22 15 17 18 21 22 23 29 26 32 33 31 32 64 82 89 88 86 84 82 74 75 69 65 59 57 46 45 36 30 28 27 28 29 29 28 28
5 9 3 9 4 10 16 20 10 26 22 20 26 28 26 31 29 26 23 24 23 25 26 33 33 36 45 74 84 89 89 87 82 76 65 57 59 62 52 48 35 27 30 30 31 30 30 27 28
9 6 5 12 6 5 7 6 8 32 25 17 24 23 30 27 28 30 30 28 28 24 24 29 34 43 43 50 63 82 88 90 76 73 55 63 70 53 61 52 33 27 32 33 33 32 32 27 30
3 2 3 7 8 10 14 11 10 30 25 23 25 30 29 23 28 35 35 31 33 29 25 25 31 39 48 51 54 64 79 85 72 71 69 78 62 59 61 51 38 30 33 35 35 35 33 28 26
4 3 5 8 6 10 12 20 15 19 17 24 28 27 25 33 39 32 29 30 33 36 34 29 28 35 45 52 64 60 72 75 85 77 77 67 61 64 60 53 43 34 36 31 32 35 34 30 28
5 2 4 9 12 11 20 39 23 13 13 18 19 23 27 44 43 34 35 37 35 36 41 38 31 31 37 49 60 72 64 78 84 88 84 69 65 60 60 48 46 38 35 32 32 35 36 33 30
4 6 3 8 10 11 14 19 7 1 7 17 21 21 30 27 35 47 49 52 53 48 43 47 44 39 37 45 63 67 74 72 75 86 84 79 71 65 54 50 47 39 36 32 31 31 36 33 30
2 8 4 4 7 4 8 14 9 9 8 6 21 21 14 28 39 46 54 56 59 61 59 54 56 53 44 42 56 67 77 71 82 80 85 84 79 62 55 52 48 41 36 32 28 30 33 32 36
8 3 5 4 5 5 7 5 11 10 11 11 12 19 27 32 35 44 52 57 57 59 63 60 60 64 58 47 48 63 70 75 73 86 87 88 71 59 54 54 49 41 38 32 31 33 32 36 36
6 6 9 8 5 4 10 7 8 4 7 8 10 23 24 30 37 52 61 66 70 65 66 63 62 66 67 57 51 62 72 73 76 79 90 93 68 58 54 55 45 42 39 34 33 31 32 31 34
11 11 8 9 5 9 9 7 18 18 23 14 14 24 30 37 48 57 65 72 82 83 79 71 66 69 68 69 59 58 69 70 79 81 88 90 65 59 52 53 44 44 38 34 34 34 35 36 36
7 12 9 10 7 9 2 14 12 16 24 16 18 22 36 49 57 58 69 81 88 90 82 67 67 75 71 75 71 60 71 79 76 85 91 89 73 56 54 46 42 38 38 35 35 34 36 36 33
3 6 5 0 2 3 10 15 22 20 12 13 21 33 44 49 53 63 74 84 73 84 73 56 70 72 73 76 78 70 68 79 82 86 88 81 74 55 54 44 39 40 38 35 34 36 37 36 31
8 9 3 5 5 9 9 13 20 20 21 10 15 32 54 57 51 57 75 82 78 79 63 61 70 70 76 76 79 76 70 72 71 81 79 81 70 60 52 44 40 42 39 36 38 41 36 32 32
1 0 7 6 8 7 8 12 11 10 11 14 15 42 55 60 58 58 72 77 76 87 83 68 62 65 72 73 75 78 72 68 70 64 72 80 69 60 47 44 44 47 45 39 39 39 38 34 29
10 13 11 8 8 7 6 26 14 14 9 14 31 55 65 54 63 62 66 70 77 84 99 81 67 70 64 62 71 78 73 65 71 72 78 74 67 54 49 46 48 52 47 42 39 39 38 32 29
Wind_Direction_850mb
288 257 177 158 57 61 253 244 268 318 307 263 281 223 223 207 170 211 223 192 181 173 167 165 165 166 162 160 158 157 154 155 155 156 154 150 146 144 142 140 137 134 129 124 116 108 101 95 92
274 226 161 136 106 142 260 250 212 210 271 308 290 275 238 242 224 251 222 176 183 173 169 167 167 169 165 166 163 162 161 162 162 163 161 158 156 154 153 152 149 146 140 135 128 119 107 96 90
253 179 198 126 146 188 219 219 210 260 321 292 296 317 235 246 203 220 196 172 177 177 172 170 169 170 170 170 170 169 170 170 171 173 171 170 169 168 169 168 169 166 160 152 143 128 121 115 96
205 172 62 123 224 227 222 222 244 315 343 344 332 305 322 310 225 216 179 174 177 180 177 174 173 173 175 175 176 174 177 178 180 181 183 186 187 187 190 192 194 197 198 189 179 150 142 124 112
193 143 95 267 227 229 221 271 300 306 309 317 348 302 297 351 311 209 188 178 180 183 181 178 177 178 178 180 181 181 184 187 189 192 197 201 204 207 210 212 215 222 228 234 223 230 228 175 172
142 120 92 242 141 101 276 259 288 309 312 321 350 335 4 350 339 187 180 180 184 184 183 183 181 183 184 184 186 189 192 194 199 205 209 212 216 220 226 231 232 239 243 251 251 254 257 255 256
157 112 221 244 167 28 313 296 315 314 318 342 345 54 344 4 358 205 182 184 186 189 187 187 187 188 191 190 191 196 200 202 207 215 219 224 228 230 232 238 244 249 253 255 259 258 262 265 266
171 117 235 255 87 240 256 323 298 24 307 334 12 3 350 354 343 240 195 189 190 191 191 190 193 194 196 195 198 201 206 211 214 219 226 231 235 239 241 244 249 255 258 259 264 264 261 263 269
155 121 222 203 146 259 12 331 289 316 285 328 332 355 0 354 346 263 201 194 194 197 196 196 199 199 201 202 204 207 210 217 220 221 227 232 237 243 248 253 254 260 261 259 261 265 264 264 266
163 163 210 159 18 292 312 291 330 323 319 324 343 337 341 350 353 321 216 205 202 203 202 200 204 205 206 207 211 214 217 220 226 227 230 236 239 246 252 257 259 262 264 265 265 264 263 263 265
174 203 214 97 251 294 292 295 310 300 310 354 322 323 329 336 333 353 295 241 218 212 209 207 207 210 213 215 216 219 221 226 230 235 238 241 242 246 250 257 260 266 269 272 270 268 267 270 269
133 237 213 236 267 291 277 302 254 260 261 302 315 324 323 330 327 316 329 321 259 239 223 215 212 213 217 220 223 226 227 230 233 238 241 247 250 251 254 258 264 267 272 273 274 271 269 269 270
129 350 304 277 276 272 283 260 270 270 289 310 322 318 316 324 331 315 313 313 318 280 240 237 223 219 220 223 226 229 232 234 237 242 244 248 254 258 262 264 265 269 270 272 274 276 274 271 269
229 275 277 260 251 252 245 268 260 275 308 310 312 312 315 313 323 322 311 305 310 317 281 249 243 237 228 227 229 232 235 238 239 242 247 251 257 259 262 264 262 265 266 269 269 274 269 261 255
303 316 311 229 230 231 236 267 246 317 346 310 324 20 358 351 351 346 320 300 295 298 297 294 284 253 249 243 235 235 238 241 240 245 247 253 258 262 263 261 260 266 263 265 265 266 269 258 244
87 41 6 289 358 257 181 252 358 3 27 344 327 335 354 352 350 354 342 327 307 285 276 283 286 283 261 249 250 249 246 245 248 252 255 262 266 265 264 259 257 263 264 265 264 263 269 259 239
6 173 202 313 295 295 161 286 293 327 337 328 320 325 332 343 340 336 335 332 320 313 280 268 277 278 283 273 257 248 251 252 252 254 245 240 247 255 261 262 259 258 268 268 266 265 264 261 243
235 330 235 242 298 10 305 246 285 309 312 299 300 305 317 328 340 333 326 316 308 306 301 280 274 269 278 276 273 261 252 247 245 249 245 241 250 250 255 262 266 265 273 269 266 264 258 261 245
76 230 229 260 286 353 288 287 283 276 270 275 283 291 304 319 327 323 327 327 308 303 300 293 280 266 262 272 273 271 263 251 238 234 240 243 241 246 252 259 263 269 276 274 267 260 251 254 246
180 218 312 306 319 343 305 293 286 240 228 230 259 281 293 318 320 326 328 327 323 312 302 298 297 283 270 268 268 267 275 259 247 237 235 243 244 247 249 259 267 274 271 263 259 252 247 246 242
200 158 215 234 322 297 324 296 264 309 223 270 262 261 309 319 327 327 327 324 321 317 310 299 294 292 278 266 261 263 263 257 257 238 237 243 248 249 252 258 265 270 261 258 253 249 245 248 249
340 196 217 263 28 292 58 287 263 233 258 282 290 309 314 320 322 325 326 327 323 316 313 308 293 287 282 279 261 253 258 258 251 248 240 242 248 248 251 258 266 263 250 250 248 244 241 245 239
213 38 332 307 273 13 264 264 274 321 344 318 285 293 317 328 329 329 328 324 325 326 315 305 298 281 278 276 271 251 256 254 252 246 250 248 249 247 251 256 260 248 244 242 240 236 231 241 237
67 25 20 51 76 2 264 179 270 166 176 256 251 285 316 331 332 330 327 325 321 319 317 307 298 283 273 272 273 254 251 249 247 245 245 248 248 244 249 256 251 242 239 239 237 231 235 226 232
73 52 339 345 9 224 207 299 242 264 290 216 253 293 311 322 329 332 334 331 329 322 316 305 299 289 275 270 265 259 245 249 249 245 243 242 238 240 251 254 247 237 236 233 231 227 218 218 230
205 152 167 237 224 237 54 247 247 217 241 234 244 284 307 321 328 331 336 336 332 325 316 299 296 290 282 270 263 263 245 242 246 246 243 239 240 242 254 253 241 231 227 228 230 213 206 216 221
151 165 189 196 304 325 223 289 302 281 265 256 296 309 309 318 325 331 333 335 332 327 314 297 298 288 284 275 262 258 249 239 248 243 242 238 235 238 248 243 234 221 222 227 220 200 211 211 215
154 162 70 14 269 269 258 259 241 286 279 280 293 297 312 317 319 326 333 332 328 334 319 303 301 293 287 277 261 255 249 237 250 240 234 228 228 234 235 233 223 219 218 221 209 205 204 197 211
18 69 80 122 150 210 306 261 220 236 248 274 276 304 311 313 313 318 320 327 321 329 329 313 308 309 291 276 260 252 244 231 243 229 223 222 227 233 229 230 222 216 215 205 199 204 201 201 217
174 196 159 138 226 216 243 270 272 259 299 313 294 305 309 314 320 304 312 317 313 319 326 316 313 312 297 268 252 245 236 227 235 229 219 224 230 229 232 224 219 218 208 197 205 204 199 205 221